www.pogodaiklimat.ru

АРХИВ ПОГОДЫ в Краснодаре

Время (UTC), дата Ветер
(напр.,м/с)
 
Видим.   Явления Облачность Т
(С)
Тd
(С)
f
(%)
Тe
(С)
Тes
(С)
Комфортность P
(гПа)
Po
(гПа)
Тmin
(С)
Tmax
(С)
R
(мм)
S
(см)
18 26.07 СВ 1 10 км 4/0
[Ac trans Ci fib]
+32.0 +14.3 34 +34 +34 душно 1005.1 1001.8
21 26.07 ЮВ 1 10 км ясно +27.5 +15.9 49 +31 +31 душно 1005.1 1001.7
00 27.07 ЮЗ 2 10 км 4/0
[Ci fib]
+24.9 +20.8 78 +31 +31 очень
душно
1005.7 1002.3
03 27.07 Ю 1 10 км 3/0
[Ac trans]
+25.4 +21.1 77 +32 +32 очень
душно
1006.1 1002.7 +24.9
06 27.07 В 2 10 км 8/5 1000 м
[Cu hum Ac trans]
+28.5 +21.5 66 +36 +39 очень
душно
1006.7 1003.4
09 27.07 ЮВ 1 10 км ясно +31.6 +21.6 55 +40 +60 опасность
солнечного
удара
1005.9 1002.5
12 27.07 Ю 1 10 км 4/4 1000 м
[Cu med, cong]
+34.0 +19.2 42 +39 +48 очень
душно
1004.7 1001.4
15 27.07 СЗ 2
{10}
10 км гроза без осадков {ливн. осадки} 8/8 600 м
[Cb calv]
+22.5 +19.8 85 +29 +29 очень
душно
1006.1 1002.7 +34.4 7
18 27.07 ЮЗ 1 10 км {гроза, ливн. осадки} 6/4 1000 м
[Sc diur, vesp Ac trans]
+23.5 +17.5 69 +27 +27 душно 1005.1 1001.7
21 27.07 С 1 10 км {гроза} 6/1 1000 м
[Sc diur, vesp Ac trans]
+23.2 +18.9 77 +29 +29 душно 1005.8 1002.3
00 28.07 штиль 0 10 км 8/6 1000 м
[Sc diur, vesp Ac trans]
+24.2 +19.2 74 +29 +29 душно 1006.7 1003.3
03 28.07 штиль 0 10 км 4/4 1000 м
[Sc]
+23.4 +20.0 81 +30 +31 очень
душно
1006.5 1003.1 +22.2 0.3
06 28.07 Ю 1 10 км гроза без осадков 9/4 1000 м
[Cb cap Ac trans Ci fib]
+24.6 +20.8 79 +31 +34 очень
душно
1007.0 1003.6
09 28.07 ЮВ 3 10 км 9/3 1000 м
[Cu med, cong Ac trans Ci fib]
+28.7 +20.1 60 +35 +41 очень
душно
1007.2 1003.8
12 28.07 ЮЗ 2 10 км {гроза} 4/4 1000 м
[Cu med, cong]
+31.4 +18.5 46 +36 +44 очень
душно
1006.7 1003.3
15 28.07 Ю 2 10 км 1/1 1000 м
[Cu med, cong]
+29.9 +17.7 48 +34 +36 очень
душно
1007.0 1003.6 +31.9 0.8
18 28.07 Ю 2 10 км 4/4 1000 м
[Sc diur, vesp]
+26.3 +18.4 62 +31 +31 душно 1009.2 1005.8
21 28.07 штиль 0 10 км 3/3 600 м
[Sc]
+24.2 +18.9 72 +29 +29 душно 1009.8 1006.4
00 29.07 Ю 1 10 км ясно +22.1 +19.4 85 +28 +28 душно 1010.1 1006.6
03 29.07 Ю 1 10 км ясно +21.9 +19.2 85 +27 +28 душно 1011.0 1007.5 +21.0
06 29.07 ЮЗ 1 10 км ясно +27.4 +17.8 56 +32 +43 очень
душно
1011.4 1008.0
09 29.07 З 1 10 км 3/3 1000 м
[Cu hum]
+31.6 +17.8 44 +36 +50 очень
душно
1011.5 1008.1
12 29.07 ЮЗ 2 10 км 9/8 1000 м
[Cb cap Ac trans Ci fib]
+32.8 +15.6 36 +35 +37 душно 1010.6 1007.3
15 29.07 СЗ 2 10 км 8/4 1000 м
[Cu med, cong Ac trans]
+31.0 +18.5 47 +36 +36 очень
душно
1010.7 1007.3 +33.5
18 29.07 СЗ 2 10 км ясно +28.0 +18.6 57 +33 +33 очень
душно
1011.8 1008.4
21 29.07 штиль 0 10 км ясно +24.7 +20.1 76 +30 +30 очень
душно
1012.0 1008.6
00 30.07 штиль 0 10 км ясно +23.0 +20.7 87 +30 +30 очень
душно
1012.3 1008.8
03 30.07 СВ 1 2000 м дымка 10/10 300 м
[St]
+23.1 +21.3 90 +31 +31 очень
душно
1012.6 1009.1 +22.3
06 30.07 СВ 2 10 км 1/1 600 м
[St]
+27.4 +21.0 68 +34 +43 очень
душно
1012.7 1009.3
09 30.07 ЮВ 1 10 км 3/3 1000 м
[Cu hum]
+31.8 +17.4 42 +36 +50 очень
душно
1011.5 1008.1
12 30.07 С 1 10 км 3/3 1000 м
[Cu hum]
+35.1 +16.5 33 +38 +48 очень
душно
1010.5 1007.1
15 30.07 СВ 1 10 км ясно +33.9 +17.2 37 +37 +39 очень
душно
1009.3 1005.9 +35.3
18 30.07 С 1 10 км ясно +29.6 +17.4 48 +34 +34 очень
душно
1009.6 1006.2
21 30.07 С 1 10 км ясно +26.6 +17.2 56 +31 +31 душно 1009.3 1005.9
00 31.07 штиль 0 10 км ясно +23.9 +16.9 65 +28 +28 душно 1008.8 1005.3
03 31.07 штиль 0 10 км ясно +23.5 +16.1 63 +27 +27 душно 1008.6 1005.1 +22.4
06 31.07 СВ 1 10 км ясно +29.1 +16.7 47 +33 +43 очень
душно
1008.3 1005.0
09 31.07 СВ 1 10 км ясно +33.8 +16.8 36 +37 +57 опасность
солнечного
удара
1007.4 1004.1
12 31.07 С 1 10 км ясно +37.9 +16.5 28 +40 +54 опасность
солнечного
удара
1005.6 1002.3
15 31.07 штиль 0 10 км ясно +38.1 +14.6 25 +39 +41 очень
душно
1004.2 1000.9 +39.1
18 31.07 С 1 10 км 8/3 1000 м
[Sc Cc]
+33.2 +16.6 37 +36 +36 очень
душно
1004.3 1001.0
21 31.07 З 1 10 км ясно +29.6 +17.8 49 +34 +34 очень
душно
1004.5 1001.2
00 1.08 ЮЗ 1 10 км ясно +25.8 +19.7 69 +31 +31 очень
душно
1004.3 1000.9
03 1.08 ЮЗ 2 10 км 6/3 1000 м
[Sc Ac cast Ci fib]
+26.2 +18.3 62 +31 +31 очень
душно
1005.4 1002.0 +25.4
06 1.08 ЮЗ 3 10 км 6/1 1000 м
[Cu hum Ac cast Cc]
+29.5 +19.9 56 +36 +41 очень
душно
1007.1 1003.7
09 1.08 З 3 10 км 8/3 1000 м
[Sc Ac trans Ci sp]
+33.5 +21.5 50 +42 +48 опасность
перегрева
1007.8 1004.5
12 1.08 З 3 10 км 3/0
[Ac cast Ci fib]
+35.8 +18.1 35 +40 +48 очень
душно
1008.4 1005.1
15 1.08 СЗ 3 10 км 8/4 1000 м
[Cu Sc Ac cast]
+34.4 +18.4 39 +39 +39 очень
душно
1009.3 1005.9 +36.6
18 1.08 СЗ 2 10 км 8/3 1000 м
[Sc Ac trans]
+30.5 +17.5 46 +35 +35 очень
душно
1011.3 1007.9
21 1.08 С 2 10 км ясно +27.5 +16.0 49 +31 +31 душно 1013.8 1010.4
00 2.08 С 2 10 км ясно +24.8 +15.2 55 +28 +28 жарко 1015.8 1012.4
03 2.08 С 2 10 км ясно +22.0 +14.9 64 +25 +26 комфорт 1017.2 1013.6 +22.0
06 2.08 СВ 3 10 км ясно +24.5 +14.0 52 +27 +34 жарко 1017.3 1013.8 +22.0
09 2.08 С 2 10 км 6/3 1000 м
[Sc Ac cast]
+28.1 +14.6 44 +31 +39 душно 1017.4 1014.0
12 2.08 СВ 3 10 км 6/0
[Ac trans Ci fib]
+30.8 +13.9 36 +32 +41 жарко 1016.7 1013.3
15 2.08 СВ 2 10 км 3/0
[Ac cast]
+31.2 +13.2 33 +32 +34 жарко 1016.5 1013.1 +32.0

 

Местоположение метеостанции Краснодар (Краснодарский край, Россия): широта 45.03 долгота 39.15 высота над уровнем моря 34 м.

В архиве по умолчанию представлена погода в Краснодаре за последнюю неделю. Архивные данные за месяц целиком и за предыдущие месяцы, начиная с января 2011 года, Вы можете получить, выбрав интересующий диапазон дат из раскрывающегося списка и нажав кнопку "Ввод!".

Внимание! Время в таблицах - всемирное. Для получения местного времени необходимо прибавить поправку, которая в Краснодаре равна 3 ч.

Ветер - указаны скорость ветра в м/с - средняя за 10 мин, порывы в срок и между сроками (в фигурных скобках) и направление, откуда дует ветер: С - северный, СВ - северо-восточный, В - восточный, ЮВ - юго-восточный, Ю - южный, ЮЗ - юго-западный, З - западный, СЗ - северо-западный.
Видимость - горизонтальная дальность видимости в метрах или километрах. При видимости от 1 до 10 км при отсутствии осадков обычно наблюдается дымка, при ухудшении видимости до 1 км и менее - туман. В сухую погоду видимость может ухудшаться дымом, пылью или мглою.
Явления - указаны атмосферные явления, наблюдавшиеся в срок или в последний час перед сроком; фигурными скобками обозначены явления, наблюдавшиеся между сроками (за 1-3 часа до срока); квадратными скобками обозначены град или гололедные отложения с указанием их диаметра в мм.
Облачность - указаны через наклонную черту общая и нижняя облачность в баллах и высота нижней границы облаков в метрах; квадратными скобками обозначены формы облаков: Ci - перистые, Cs - перисто-слоистые, Cc - перисто-кучевые, Ac - высококучевые, As - высокослоистые, Sc - слоисто-кучевые, Ns - слоисто-дождевые, Cu - кучевые, Cb - кучево-дождевые. Подробнее классификацию облаков см. в Атласе облаков (PDF).
T - Температура воздуха - температура, измеренная на высоте 2 м над землей.
Td - Температура точки росы - температура, при понижении до которой содержащийся в воздухе водяной пар достигнет насыщения.
f - Относительная влажность воздуха - влажноcть воздуха, измеренная на высоте 2 м над землей.
Te - Эффективная температура - температура, которую ощущает одетый по сезону человек в тени. Характеристика душности погоды. При расчете учитывается влияние влажности воздуха и скорости ветра на теплоощущения человека.
Tes - Эффективная температура на солнце - температура, которую ощущает человек, с поправкой на солнечный нагрев. Характеристика знойности погоды. Зависит от высоты солнца над горизонтом, облачности и скорости ветра. Ночью, в пасмурную погоду, а также при ветре 12 м/с и более поправка равна нулю.
P - Атмосферное давление - приведенное к уровню моря атмосферное давление.
Po - Атмосферное давление - измеренное на уровне метеостанции атмосферное давление.
Tmin - Минимальная температура - минимум температуры воздуха на высоте 2 м над землей.
Tmax - Максимальная температура - максимум температуры воздуха на высоте 2 м над землей.
R - Количество осадков - Количество выпавших осадков, мм. При наведении курсора мыши на число - период времени, за который выпало указанное количество осадков.
S - Снежный покров - Высота снежного покрова, см. При наведении курсора мыши на число - состояние снежного покрова и степень покрытия местности в баллах.